Weather History for Clovis, NM

Change the Weather History Date:

Thursday, January 31, 2013

  Actual Average Record
Temperature  
Mean Temperature 42 °F -  
Max Temperature 57 °F 53 °F 75 °F (1967)
Min Temperature 28 °F 24 °F 0 °F (1918)
Degree Days  
Heating Degree Days 22    
Moisture  
Dew Point 15 °F    
Average Humidity 38    
Maximum Humidity 64    
Minimum Humidity 16    
Precipitation  
Precipitation 0.00 in - - ()
Sea Level Pressure  
Sea Level Pressure 30.14 in    
Wind  
Wind Speed 13 mph (WNW)    
Max Wind Speed 22 mph    
Max Gust Speed 25 mph    
Visibility 10 miles    
Events      
Averages and records for this station are not official NWS values.
T = Trace of Precipitation, MM = Missing Value Source: NWS Daily Summary

Daily Weather History Graph

Daily Weather History Graph

Search for Another Location

Airport:

Trip Planner

Search our weather history database for the weather conditions in past years. The results will help you decide how hot, cold, wet, or windy it might be!

Date:

Astronomy

Jan. 31, 2013 Rise Set
Actual Time 6:50 AM MST 5:21 PM MST
Civil Twilight 6:24 AM MST 5:47 PM MST
Nautical Twilight 5:54 AM MST 6:18 PM MST
Astronomical Twilight 5:24 AM MST 6:47 PM MST
Moon 10:09 PM MST (1/31) 9:05 AM MST (1/31)
Length of Visible Light 11h 23m
Length of Day
10h 30m
Waning Gibbous, 79% of the Moon is Illuminated
Jan 31
Waning Gibbous
Feb 3
Last Quarter
Feb 10
New
Feb 17
First Quarter
Feb 25
Full

Hourly Weather History & Observations

Time (MST) Temp. Windchill Dew Point Humidity Pressure Visibility Wind Dir Wind Speed Gust Speed Precip Events Conditions
12:15 AM 33.8 °F 23.9 °F 15.8 °F 48% 30.05 in 10.0 mi WNW 15.0 mph - N/A   Clear
12:35 AM 33.8 °F 23.5 °F 15.8 °F 48% 30.05 in 10.0 mi WNW 16.1 mph - N/A   Clear
12:55 AM 33.8 °F 22.8 °F 17.6 °F 52% 30.04 in 10.0 mi WNW 18.4 mph - N/A   Clear
1:15 AM 33.8 °F 23.5 °F 17.6 °F 52% 30.04 in 10.0 mi WNW 16.1 mph - N/A   Clear
1:35 AM 33.8 °F 23.9 °F 17.6 °F 52% 30.05 in 10.0 mi WNW 15.0 mph - N/A   Clear
1:55 AM 33.8 °F 24.3 °F 17.6 °F 52% 30.05 in 10.0 mi WNW 13.8 mph - N/A   Clear
2:15 AM 32.0 °F 22.1 °F 15.8 °F 51% 30.06 in 10.0 mi West 13.8 mph - N/A   Clear
2:35 AM 32.0 °F 22.1 °F 15.8 °F 51% 30.06 in 10.0 mi West 13.8 mph - N/A   Clear
2:55 AM 30.2 °F 19.8 °F 15.8 °F 55% 30.06 in 10.0 mi West 13.8 mph - N/A   Clear
3:15 AM 30.2 °F 19.3 °F 15.8 °F 55% 30.05 in 10.0 mi West 15.0 mph - N/A   Clear
3:35 AM 30.2 °F 19.3 °F 15.8 °F 55% 30.05 in 10.0 mi West 15.0 mph - N/A   Clear
3:55 AM 30.2 °F 20.2 °F 15.8 °F 55% 30.06 in 10.0 mi WNW 12.7 mph - N/A   Clear
4:15 AM 30.2 °F 20.2 °F 15.8 °F 55% 30.06 in 10.0 mi West 12.7 mph - N/A   Clear
4:35 AM 30.2 °F 19.3 °F 17.6 °F 60% 30.07 in 10.0 mi West 15.0 mph - N/A   Clear
4:55 AM 30.2 °F 19.8 °F 17.6 °F 60% 30.06 in 10.0 mi West 13.8 mph - N/A   Clear
5:15 AM 28.4 °F 17.5 °F 15.8 °F 59% 30.06 in 10.0 mi West 13.8 mph - N/A   Clear
5:35 AM 28.4 °F 18.5 °F 15.8 °F 59% 30.07 in 10.0 mi WNW 11.5 mph - N/A   Clear
5:55 AM 28.4 °F 18.0 °F 17.6 °F 64% 30.07 in 10.0 mi West 12.7 mph - N/A   Clear
6:15 AM 28.4 °F 19.1 °F 15.8 °F 59% 30.08 in 10.0 mi West 10.4 mph - N/A   Clear
6:35 AM 28.4 °F 19.1 °F 15.8 °F 59% 30.09 in 10.0 mi West 10.4 mph - N/A   Clear
6:55 AM 28.4 °F 18.5 °F 17.6 °F 64% 30.10 in 10.0 mi West 11.5 mph - N/A   Clear
7:15 AM 30.2 °F 23.4 °F 17.6 °F 60% 30.11 in 10.0 mi West 6.9 mph - N/A   Clear
7:35 AM 33.8 °F 25.3 °F 19.4 °F 56% 30.12 in 10.0 mi WNW 11.5 mph - N/A   Clear
7:55 AM 35.6 °F 25.2 °F 19.4 °F 52% 30.14 in 10.0 mi WNW 18.4 mph - N/A   Clear
8:15 AM 37.4 °F 27.8 °F 19.4 °F 48% 30.14 in 10.0 mi West 17.3 mph - N/A   Clear
8:35 AM 39.2 °F 30.5 °F 21.2 °F 49% 30.15 in 10.0 mi West 16.1 mph - N/A   Clear
8:55 AM 42.8 °F 34.5 °F 21.2 °F 42% 30.16 in 10.0 mi West 18.4 mph 23.0 mph N/A   Clear
9:15 AM 44.6 °F 36.9 °F 21.2 °F 39% 30.17 in 10.0 mi WNW 18.4 mph 25.3 mph N/A   Clear
9:35 AM 46.4 °F 38.5 °F 21.2 °F 37% 30.17 in 10.0 mi WNW 21.9 mph - N/A   Clear
9:55 AM 48.2 °F - 21.2 °F 34% 30.17 in 10.0 mi WNW 20.7 mph - N/A   Clear
10:15 AM 50.0 °F - 21.2 °F 32% 30.17 in 10.0 mi WNW 18.4 mph 23.0 mph N/A   Clear
10:35 AM 51.8 °F - 21.2 °F 30% 30.16 in 10.0 mi NW 13.8 mph - N/A   Clear
10:55 AM 51.8 °F - 19.4 °F 28% 30.16 in 10.0 mi NW 13.8 mph - N/A   Clear
11:15 AM 53.6 °F - 19.4 °F 26% 30.16 in 10.0 mi NW 12.7 mph 19.6 mph N/A   Clear
11:35 AM 53.6 °F - 17.6 °F 24% 30.15 in 10.0 mi NNW 5.8 mph - N/A   Clear
11:55 AM 53.6 °F - 15.8 °F 22% 30.14 in 10.0 mi WNW 6.9 mph - N/A   Clear
12:15 PM 55.4 °F - 15.8 °F 21% 30.14 in 10.0 mi NW 11.5 mph - N/A   Clear
12:35 PM 55.4 °F - 15.8 °F 21% 30.14 in 10.0 mi WNW 10.4 mph - N/A   Clear
12:55 PM 55.4 °F - 15.8 °F 21% 30.13 in 10.0 mi West 9.2 mph - N/A   Clear
1:15 PM 57.2 °F - 15.8 °F 20% 30.14 in 10.0 mi West 5.8 mph - N/A   Clear
1:35 PM 57.2 °F - 14.0 °F 18% 30.14 in 10.0 mi NW 9.2 mph - N/A   Clear
1:55 PM 57.2 °F - 14.0 °F 18% 30.14 in 10.0 mi NNW 10.4 mph - N/A   Clear
2:15 PM 57.2 °F - 12.2 °F 17% 30.14 in 10.0 mi West 3.5 mph - N/A   Clear
2:35 PM 57.2 °F - 12.2 °F 17% 30.16 in 10.0 mi NW 9.2 mph - N/A   Clear
2:55 PM 57.2 °F - 12.2 °F 17% 30.17 in 10.0 mi NW 5.8 mph - N/A   Clear
3:15 PM 57.2 °F - 12.2 °F 17% 30.17 in 10.0 mi NW 4.6 mph - N/A   Clear
3:35 PM 57.2 °F - 10.4 °F 16% 30.18 in 10.0 mi NNW 4.6 mph - N/A   Clear
3:55 PM 57.2 °F - 10.4 °F 16% 30.18 in 10.0 mi North 5.8 mph - N/A   Clear
4:15 PM 57.2 °F - 10.4 °F 16% 30.18 in 10.0 mi NNW 8.1 mph - N/A   Clear
4:35 PM 55.4 °F - 10.4 °F 17% 30.18 in 10.0 mi NNW 3.5 mph - N/A   Clear
4:55 PM 55.4 °F - 10.4 °F 17% 30.19 in 10.0 mi NNE 5.8 mph - N/A   Clear
5:15 PM 51.8 °F - 8.6 °F 18% 30.19 in 10.0 mi North 8.1 mph - N/A   Clear
5:35 PM 46.4 °F 42.4 °F 6.8 °F 20% 30.19 in 10.0 mi NNE 8.1 mph - N/A   Clear
5:55 PM 44.6 °F 40.7 °F 6.8 °F 21% 30.20 in 10.0 mi NNE 6.9 mph - N/A   Clear
6:15 PM 42.8 °F 37.5 °F 8.6 °F 25% 30.21 in 10.0 mi NE 9.2 mph - N/A   Clear
6:35 PM 41.0 °F 35.8 °F 8.6 °F 26% 30.22 in 10.0 mi NE 8.1 mph - N/A   Clear
7:15 PM 37.4 °F 32.8 °F 6.8 °F 28% 30.22 in 10.0 mi ESE 5.8 mph - N/A   Clear
7:35 PM 37.4 °F 33.8 °F 8.6 °F 30% 30.23 in 10.0 mi SE 4.6 mph - N/A   Clear
8:15 PM 37.4 °F 32.1 °F 8.6 °F 30% 30.23 in 10.0 mi ESE 6.9 mph - N/A   Clear
8:35 PM 37.4 °F 31.4 °F 8.6 °F 30% 30.23 in 10.0 mi SE 8.1 mph - N/A   Clear
9:15 PM 37.4 °F 31.4 °F 10.4 °F 33% 30.23 in 10.0 mi SE 8.1 mph - N/A   Clear
9:35 PM 37.4 °F 30.3 °F 10.4 °F 33% 30.23 in 10.0 mi East 10.4 mph - N/A   Clear
9:55 PM 35.6 °F 27.5 °F 10.4 °F 35% 30.24 in 10.0 mi ESE 11.5 mph - N/A   Clear
10:15 PM 35.6 °F 26.2 °F 14.0 °F 41% 30.24 in 10.0 mi ESE 15.0 mph - N/A   Clear
10:35 PM 35.6 °F 26.2 °F 14.0 °F 41% 30.24 in 10.0 mi ESE 15.0 mph - N/A   Clear
11:15 PM 35.6 °F 25.9 °F 17.6 °F 48% 30.25 in 10.0 mi SE 16.1 mph - N/A   Clear
11:35 PM 35.6 °F 26.2 °F 17.6 °F 48% 30.25 in 10.0 mi SE 15.0 mph 19.6 mph N/A   Clear
11:55 PM 33.8 °F 25.3 °F 17.6 °F 52% 30.25 in 10.0 mi SSE 11.5 mph - N/A   Clear